Overview Statistics Trail Chart Weather Telemetry Raw packets
 

This is the latest recevied weather packets stored in our database for station/object SQ3MKP-13. If no packets are shown the sender has not sent any weather packets the latest 10 day(s).

<< 80 81 82 83 84 85 86 >>
Time Temp. Humidity Pressure Rain* Wind** Luminosity Snow
1788016678 22.78° C 49% 1003.9 hPa - - 184 W/m² -
1788016376 23.33° C 47% 1003.9 hPa - - 200 W/m² -
1788016075 23.89° C 46% 1003.8 hPa - - 219 W/m² -
1788015775 23.33° C 48% 1003.9 hPa - - 228 W/m² -
1788015473 23.33° C 47% 1003.8 hPa - - 229 W/m² -
1788015173 23.33° C 47% 1003.9 hPa - - 66 W/m² -
1788014871 23.33° C 48% 1003.8 hPa - - 74 W/m² -
1788014572 22.78° C 48% 1003.9 hPa - - 115 W/m² -
1788014269 23.33° C 48% 1003.9 hPa - - 70 W/m² -
1788013969 23.33° C 47% 1003.9 hPa - - 211 W/m² -
1788013668 23.33° C 47% 1003.9 hPa - - 104 W/m² -
1788013367 23.33° C 48% 1003.9 hPa - - 88 W/m² -
1788013066 23.33° C 51% 1003.8 hPa - - 107 W/m² -
1788012765 23.33° C 52% 1003.8 hPa - - 93 W/m² -
1788012464 23.33° C 51% 1003.8 hPa - - 383 W/m² -
1788012163 23.33° C 54% 1003.7 hPa - - 389 W/m² -
1788011862 22.78° C 54% 1003.7 hPa - - 429 W/m² -
1788011561 22.78° C 56% 1003.6 hPa - - 478 W/m² -
1788011260 22.22° C 58% 1003.7 hPa - - 501 W/m² -
1788010959 22.22° C 58% 1003.7 hPa - - 182 W/m² -
1788010658 22.78° C 60% 1003.7 hPa - - 188 W/m² -
1788010357 22.78° C 59% 1003.7 hPa - - 537 W/m² -
1788010056 22.78° C 59% 1003.7 hPa - - 560 W/m² -
1788009757 22.22° C 60% 1003.6 hPa - - 539 W/m² -
1788009454 22.22° C 61% 1003.7 hPa - - 178 W/m² -

* Rain since midnight (hover to see other rain measurements)
** Current wind speed in m/s (hover to see current wind gust speed)